EDT,Max TemperatureF,Mean TemperatureF,Min TemperatureF,Max Dew PointF,MeanDew PointF,Min DewpointF,Max Humidity, Mean Humidity, Min Humidity, Max Sea Level PressureIn, Mean Sea Level PressureIn, Min Sea Level PressureIn, Max VisibilityMiles, Mean VisibilityMiles, Min VisibilityMiles, Max Wind SpeedMPH, Mean Wind SpeedMPH, Max Gust SpeedMPH,PrecipitationIn, CloudCover, Events, WindDirDegrees
2013-6-1,85,75,65,67,65,64,100,76,51,30.00,29.90,29.78,10,10,10,24,9,35,0.04,2,Rain-Thunderstorm,187
2013-6-2,80,72,63,66,60,56,90,68,45,29.88,29.84,29.78,10,10,10,17,8,25,0.00,4,,252
2013-6-3,68,60,51,57,53,43,84,68,52,30.09,29.98,29.88,10,10,10,12,5,15,0.00,7,,345
2013-6-4,75,58,40,47,43,38,100,67,33,30.18,30.13,30.09,10,10,8,10,2,17,0.00,0,,11
2013-6-5,82,67,51,61,52,45,83,61,38,30.12,30.01,29.88,10,10,10,18,3,23,0.00,1,,71
2013-6-6,71,65,59,67,64,58,100,87,73,29.91,29.82,29.76,10,6,1,18,6,24,0.66,8,Rain,160
2013-6-7,65,61,56,57,55,54,93,83,73,29.89,29.83,29.81,10,6,1,12,6,15,0.00,8,,354
2013-6-8,75,64,53,58,54,52,93,71,49,30.09,29.99,29.90,10,9,4,8,1,13,0.00,5,,200
2013-6-9,83,72,60,65,60,57,90,69,47,30.13,30.05,29.98,10,10,7,12,4,16,0.08,5,Rain,153
2013-6-10,77,71,64,67,64,61,93,79,64,29.96,29.85,29.77,10,7,1,12,6,17,0.47,7,Rain,188
2013-6-11,82,72,62,64,62,61,93,74,54,29.93,29.88,29.82,10,9,4,16,7,21,0.00,4,,257
2013-6-12,87,76,64,73,68,62,93,75,57,29.93,29.85,29.71,10,10,7,14,5,26,0.00,1,Thunderstorm,202
2013-6-13,80,70,59,71,61,52,93,70,46,29.86,29.68,29.54,10,9,2,30,9,44,0.54,5,Rain-Thunderstorm,299
2013-6-14,76,66,55,57,54,52,93,72,50,30.07,29.97,29.87,10,10,10,14,6,22,0.00,2,,340
2013-6-15,79,64,49,62,52,48,96,68,40,30.15,30.08,30.00,10,5,0,10,2,14,0.00,3,Fog,181
2013-6-16,76,71,65,66,63,57,93,79,64,29.99,29.96,29.93,10,9,2,21,7,26,0.08,5,Rain,224
2013-6-17,70,68,66,66,65,64,93,89,84,29.99,29.96,29.91,10,5,2,3,1,3,0.00,5,Thunderstorm,216
2013-6-18,77,71,64,66,64,56,93,81,69,29.99,29.90,29.86,10,9,6,12,3,15,T,4,Rain-Thunderstorm,242
2013-6-19,77,65,53,53,49,43,86,59,31,30.15,30.07,29.99,10,10,10,13,4,16,0.00,0,,18
2013-6-20,82,66,49,57,51,48,93,63,33,30.23,30.20,30.15,10,10,9,8,1,14,0.00,0,,39
2013-6-21,86,70,53,62,57,52,93,65,37,30.25,30.21,30.16,10,9,5,12,3,16,0.00,0,,160
2013-6-22,89,74,59,67,63,58,97,69,41,30.19,30.13,30.07,10,9,5,13,4,17,0.00,1,,196
2013-6-23,90,77,63,68,64,61,93,66,38,30.16,30.10,30.05,10,8,2,14,4,24,0.00,0,,206
2013-6-24,89,76,63,67,65,62,100,73,45,30.16,30.09,30.02,10,9,5,21,4,32,T,1,Rain-Thunderstorm,228
2013-6-25,91,79,67,70,67,61,93,73,52,30.06,29.98,29.89,10,10,8,18,7,23,0.00,1,Thunderstorm,194
2013-6-26,84,76,67,72,68,64,93,76,58,29.96,29.89,29.81,10,7,1,21,6,28,1.09,5,Rain-Thunderstorm,205
2013-6-27,79,73,67,70,67,64,93,85,76,29.80,29.74,29.66,10,6,0,20,4,32,2.04,7,Fog-Rain-Thunderstorm,239
2013-6-28,79,70,61,70,65,59,100,80,60,29.65,29.60,29.55,10,8,1,24,5,38,0.62,5,Rain-Thunderstorm,254
2013-6-29,78,68,58,66,60,55,100,80,60,29.70,29.61,29.56,10,5,0,12,2,14,0.61,5,Fog-Rain-Thunderstorm,202
2013-6-30,81,71,60,68,63,57,100,79,58,29.83,29.76,29.69,10,9,4,29,3,41,0.02,5,Rain-Thunderstorm,345